Location: Cheyres
(46.8153°N, 6.7877°E)
Time: 03:01:50
(UTC+00:00)

Cosmos 1340 Rocket - Pass Details

Date: 11 May 2021
Orbit: 527 x 559 km, 81.2° (Epoch: 18 June)

Event Time Altitude Azimuth Distance (km) Brightness Sun altitude
Rises 20:49:28 0° 1° (N) 2,759 7.2 -15.8°
Reaches altitude 10° 20:52:05 10° 17° (NNE) 1,857 6.0 -16.1°
Maximum altitude 20:55:15 21° 68° (ENE) 1,279 4.5 -16.4°
Enters shadow 20:56:21 19° 90° (E) 1,358 4.5 -16.5°
